Probability
0 0 0 0 0 0 0 0 0 0 0 0 1 2 3 3 2 1 0 0 2 7 9 10 10 10 9 7 4 4 6 6 5 3 3 3 4 4 3 4 5 4 1 0 0 0 1 1 2
0 0 0 0 0 0 0 0 0 0 0 0 1 3 4 3 2 0 0 0 2 6 9 10 11 10 9 7 5 4 6 6 5 4 5 5 6 6 5 5 6 4 1 0 0 1 1 2 3
0 0 0 0 0 0 0 0 0 0 0 0 1 2 3 3 2 1 0 0 1 4 7 11 11 11 10 8 6 6 6 6 5 6 7 8 9 8 8 7 7 5 2 0 0 1 3 4 5
0 0 0 0 0 0 0 0 0 0 0 0 0 1 2 3 3 3 2 1 1 2 6 10 12 11 9 8 8 8 7 7 6 8 10 11 11 11 11 10 8 6 4 2 1 2 4 6 6
0 0 0 0 0 0 0 0 0 0 1 1 0 0 2 4 6 6 4 3 2 2 5 9 12 11 10 8 7 8 8 8 9 11 12 13 13 12 12 11 10 8 7 5 3 3 5 6 6
0 0 0 0 0 0 0 0 0 1 2 2 1 1 3 7 9 8 5 3 2 3 5 8 10 11 10 7 5 6 8 11 14 13 12 11 11 9 8 9 10 10 9 8 5 3 4 5 6
0 0 0 0 0 0 0 0 0 1 2 2 1 1 4 9 12 9 5 3 3 3 5 7 8 9 8 6 5 5 7 12 14 12 10 9 7 6 5 7 9 10 10 9 6 4 3 4 4
0 0 0 0 0 0 0 0 0 1 1 1 1 1 4 9 12 10 6 4 3 4 5 6 6 7 6 5 5 5 6 8 8 7 6 6 5 3 3 7 10 10 9 9 8 6 5 4 4
0 0 0 0 0 0 0 0 0 0 0 0 0 1 5 10 12 10 8 5 4 4 5 6 7 6 5 4 3 3 3 4 3 3 3 3 3 3 2 4 8 9 9 10 10 11 9 7 6
0 0 0 0 0 0 0 0 0 0 0 0 0 2 8 13 13 10 8 6 6 6 6 7 8 7 5 4 3 2 1 1 1 2 2 3 3 3 3 4 7 8 10 11 12 13 11 8 7
0 0 0 0 0 0 0 0 0 0 0 0 1 4 10 15 14 11 8 7 8 8 7 7 7 6 5 5 4 2 1 1 2 2 3 3 3 3 5 7 8 8 10 11 11 11 10 9 8
0 0 0 0 0 0 0 0 0 0 0 0 2 6 11 14 13 10 8 7 7 7 6 5 4 4 3 3 3 1 2 3 3 2 2 2 2 2 5 9 9 8 9 9 9 10 10 9 9
0 0 0 0 0 0 0 0 0 0 0 1 4 7 9 11 11 10 8 7 7 7 5 5 5 5 4 2 1 1 3 5 3 2 1 1 2 2 4 8 8 7 8 8 8 8 9 10 10
0 0 0 0 0 0 0 0 1 1 1 2 5 7 8 8 10 10 8 8 7 7 8 8 8 8 6 3 2 2 4 5 2 1 1 2 2 3 6 9 8 5 6 7 7 7 8 10 11
0 0 0 0 0 0 0 1 3 3 3 3 4 6 8 8 9 9 9 9 9 10 11 10 10 9 7 5 4 4 4 4 2 1 2 3 4 5 8 10 8 6 6 8 8 8 9 10 10
0 0 0 0 0 0 0 2 5 5 4 3 4 5 6 7 7 9 9 9 11 13 13 11 9 8 8 6 6 7 7 6 4 3 4 6 7 7 9 10 9 8 8 10 11 10 10 10 9
0 0 0 0 0 0 0 1 4 4 3 3 4 4 4 5 7 8 9 9 10 12 14 12 10 11 11 10 10 12 13 10 6 4 7 10 11 10 10 11 11 10 9 9 10 11 10 10 10
0 0 0 0 0 0 0 1 2 2 2 4 5 5 4 5 7 9 10 9 9 12 15 17 18 19 18 15 14 15 15 12 8 7 9 12 14 14 13 12 12 11 10 8 9 10 10 9 10
0 0 0 0 0 0 0 1 2 3 4 6 6 6 6 7 8 10 11 10 10 13 18 22 26 28 25 21 17 16 14 11 10 10 12 13 15 15 15 14 13 12 10 9 9 10 10 10 9
0 0 0 0 0 0 0 1 3 4 6 6 6 7 8 9 10 10 11 11 12 16 22 28 32 33 30 24 20 18 15 12 12 14 15 15 15 16 15 15 13 11 10 8 8 10 10 9 9
0 0 0 0 0 0 0 1 3 4 5 6 6 7 8 10 11 12 12 12 13 17 25 32 35 35 32 27 23 21 18 14 14 16 18 17 15 14 13 12 11 11 9 7 7 9 9 8 8
0 0 0 0 0 0 0 1 2 3 3 4 5 6 7 10 13 15 16 16 16 19 25 32 36 37 34 30 27 24 20 17 16 17 19 17 14 12 10 8 9 11 9 7 7 8 8 7 7
0 0 0 0 0 0 0 0 1 2 2 3 4 6 7 9 13 16 18 18 18 21 24 29 34 36 34 31 29 26 21 19 19 18 18 18 14 10 8 7 9 10 9 8 8 8 7 6 6
0 0 0 0 0 0 0 0 1 2 2 3 5 6 8 9 11 14 16 18 20 22 25 27 30 32 30 28 26 23 20 20 20 18 17 16 13 11 9 8 8 8 7 8 9 8 6 5 5
0 0 0 0 0 0 0 1 1 1 1 3 4 6 8 9 9 10 13 17 20 22 23 24 27 28 25 23 22 20 19 19 17 16 14 12 11 11 11 10 9 8 7 7 7 6 5 5 5
0 0 0 0 0 0 1 1 1 0 1 3 4 5 7 9 9 9 12 16 19 20 20 22 24 25 23 22 21 19 17 15 13 12 11 10 9 10 11 12 11 10 8 6 5 4 4 5 5
0 0 0 0 0 0 1 1 1 0 1 3 5 6 8 10 11 10 11 15 18 19 19 21 22 22 22 21 20 18 16 13 11 10 9 9 8 7 8 10 10 9 7 7 5 4 4 5 5
0 0 0 0 0 0 0 1 1 0 1 4 7 9 10 11 12 13 14 16 18 19 20 20 20 19 18 18 17 15 14 12 10 9 9 8 7 5 5 6 6 7 7 8 7 5 4 5 5
0 0 0 0 0 0 0 0 1 2 4 6 8 9 10 11 14 15 16 17 17 18 19 17 16 15 15 14 12 11 10 9 9 9 8 8 7 6 5 4 4 5 6 7 7 5 3 4 5
0 0 0 0 0 0 0 1 2 4 6 8 9 8 9 12 15 16 16 16 17 18 17 16 14 13 13 10 8 7 7 7 8 8 8 8 7 6 6 6 5 4 5 5 5 4 2 2 3
Wind_Speed
10 8 6 6 8 4 4 4 3 3 3 4 2 2 3 4 5 6 6 7 9 10 12 13 10 9 8 8 8 9 9 9 9 10 10 10 9 9 8 8 8 8 8 8 7 7 7 7 7
7 5 6 7 6 1 5 4 2 3 3 2 2 1 1 4 6 6 6 8 9 10 11 10 11 9 8 8 8 8 9 9 9 9 9 9 9 8 8 8 8 7 7 7 7 6 6 7 7
6 6 6 5 2 4 4 4 3 3 3 2 2 2 3 4 4 5 7 9 9 9 9 11 9 9 8 8 7 8 8 9 9 9 9 9 8 8 7 7 7 7 7 7 6 6 6 6 7
5 6 6 5 1 4 3 2 2 2 3 2 2 3 4 4 3 6 9 9 9 9 9 12 9 8 7 7 7 7 8 8 8 8 9 8 8 7 7 6 6 6 6 6 5 5 5 5 6
6 6 6 2 3 3 2 2 1 1 2 2 2 3 5 5 6 9 10 9 8 8 8 11 9 8 7 7 6 6 7 7 7 7 7 7 7 7 6 6 6 6 5 6 5 5 5 5 5
6 6 5 1 3 3 3 1 2 2 1 3 2 3 5 6 8 9 9 8 8 7 8 10 11 9 8 6 6 6 6 7 6 6 6 7 7 6 6 6 6 5 5 5 5 5 5 5 5
7 5 3 2 1 2 3 1 2 2 1 2 2 2 6 8 8 8 8 8 7 7 7 8 8 9 8 6 5 5 6 7 6 6 6 7 7 7 6 6 6 5 5 5 5 5 5 5 5
6 6 4 2 2 2 3 1 1 2 0 2 2 1 5 9 9 8 8 7 7 7 7 7 7 7 7 8 8 6 6 7 7 6 6 6 7 7 7 7 6 5 5 5 5 5 5 5 5
6 6 3 2 3 3 1 1 1 1 2 3 2 2 6 12 11 9 8 7 7 7 6 6 6 6 6 6 7 7 7 7 7 7 7 7 6 6 6 5 5 5 5 5 5 5 5 6 7
6 6 2 3 5 4 3 3 1 4 5 4 4 5 9 11 10 10 9 9 8 8 7 6 5 5 5 4 5 5 5 6 6 5 6 5 3 3 4 6 6 6 6 6 6 5 7 9 7
6 6 4 4 5 5 5 4 3 5 4 3 5 7 9 11 10 9 8 7 7 7 6 5 5 4 4 3 3 3 3 4 5 5 5 4 3 3 3 3 5 6 7 6 7 8 7 6 4
6 5 6 6 5 6 6 4 4 5 3 2 2 8 10 10 10 9 7 7 6 6 6 5 5 4 3 3 3 3 3 3 3 4 5 4 3 3 2 2 3 4 3 3 4 4 5 5 5
8 6 5 6 7 6 5 5 5 4 2 2 5 8 10 9 8 7 6 6 6 6 6 6 5 5 4 3 3 3 3 3 3 3 4 4 3 3 3 3 3 4 3 4 4 5 4 5 6
5 6 6 7 6 5 5 5 5 3 2 4 7 8 8 8 8 7 7 6 6 6 6 5 6 6 5 4 3 3 3 3 3 3 4 5 3 3 3 4 3 3 3 3 4 4 5 5 4
6 8 8 7 6 4 6 7 4 2 3 6 6 6 7 7 7 7 6 6 6 6 6 6 6 6 6 5 5 3 3 3 3 3 4 4 4 4 4 4 4 3 4 4 4 5 5 5 5
9 10 9 6 6 5 9 7 3 2 5 5 6 6 6 7 7 6 5 5 5 5 6 5 5 6 5 4 4 3 3 3 3 3 3 4 5 5 5 4 4 3 4 4 4 5 5 5 5
10 10 8 5 5 5 8 7 2 2 5 5 6 6 7 7 6 6 5 5 5 5 5 6 5 5 5 4 3 3 3 3 3 3 3 3 4 5 5 4 2 3 3 4 4 4 5 5 5
8 9 8 8 4 6 9 7 3 3 5 5 6 6 7 7 6 5 5 5 5 5 5 5 6 5 4 4 3 3 3 3 3 3 2 3 4 5 5 4 3 4 3 3 3 4 4 5 5
10 11 11 8 4 7 9 8 5 5 6 6 7 7 7 6 6 5 6 5 5 5 5 5 5 5 4 3 3 3 3 3 3 3 3 4 4 4 4 3 3 4 4 4 4 4 6 6 4
12 13 11 7 3 6 8 9 7 6 7 6 7 7 7 6 6 6 6 5 5 5 5 5 5 5 5 3 2 2 3 3 2 2 3 4 3 4 4 4 4 4 3 4 4 5 5 5 4
12 12 11 9 6 8 9 11 8 6 6 6 7 7 7 7 6 6 6 6 6 5 5 5 5 5 4 4 3 2 2 3 3 3 3 4 4 4 4 4 4 4 5 4 5 6 6 5 5
10 8 10 10 10 8 8 10 6 6 6 7 7 7 7 7 6 6 6 6 6 5 5 5 5 4 4 5 4 4 4 3 3 3 2 3 4 4 4 5 5 5 5 4 5 5 5 6 5
7 5 8 10 11 11 9 10 5 5 7 7 7 7 7 6 6 6 6 6 5 5 4 5 5 4 4 4 4 4 4 3 2 3 3 4 4 5 5 5 5 5 5 4 5 4 5 5 6
6 6 8 10 11 11 8 10 7 4 5 4 6 6 6 6 6 6 6 6 5 4 4 4 4 4 4 4 4 4 4 4 3 3 3 3 3 3 4 4 4 5 4 4 5 5 6 6 5
9 8 7 8 8 7 4 8 5 2 3 4 3 5 5 5 6 6 6 5 5 5 4 4 4 4 4 4 4 4 4 4 4 3 3 3 3 3 4 4 5 5 5 5 6 6 6 6 6
9 11 8 8 8 6 5 6 2 1 2 3 3 3 4 5 5 5 5 5 5 5 4 4 4 4 4 4 3 3 4 4 3 3 3 3 3 3 3 5 5 6 6 6 6 6 7 6 7
10 10 9 11 11 10 6 4 4 3 4 4 3 3 4 4 4 4 4 5 4 4 4 3 3 3 3 3 3 4 4 4 3 3 4 3 3 4 4 5 6 6 7 7 7 6 7 6 7
8 7 6 8 8 10 8 7 4 4 4 4 4 4 3 3 4 4 4 4 4 4 3 3 2 2 2 2 3 2 3 3 3 3 3 4 4 4 5 6 6 6 7 7 7 7 7 7 7
8 8 8 8 8 9 9 4 2 2 3 3 4 3 3 3 3 4 3 4 4 3 3 2 2 1 1 1 1 2 2 3 3 4 4 4 4 4 5 6 6 6 7 7 7 8 7 8 8
9 9 9 8 8 9 10 5 3 1 1 2 3 2 2 3 3 4 4 4 3 3 3 2 1 1 1 1 1 1 2 2 4 4 4 4 4 5 5 5 6 6 7 7 8 8 8 8 8
Wind_Direction
184 198 220 234 235 216 75 72 58 78 81 67 58 12 12 12 2 50 87 120 130 137 135 143 142 146 148 148 150 150 148 148 151 152 151 147 146 145 143 144 145 146 145 143 139 135 137 135 132
191 202 229 241 257 121 87 77 74 55 72 104 114 107 50 62 49 86 117 124 138 137 140 139 136 144 148 149 149 152 151 151 154 155 154 151 148 147 147 148 148 150 150 149 148 144 140 138 137
199 229 255 252 308 20 65 76 69 76 111 170 125 64 31 56 86 109 121 141 144 141 140 127 139 145 146 148 149 151 153 153 154 156 154 154 153 153 150 150 152 155 154 154 154 151 144 144 144
218 223 235 253 63 41 27 57 52 139 142 170 170 114 92 60 86 117 134 149 149 147 142 131 142 144 150 152 151 152 154 155 156 157 156 156 154 154 152 153 155 158 158 158 161 159 154 155 153
240 254 241 214 75 68 43 23 274 212 164 147 184 125 105 92 109 129 143 151 151 148 142 135 139 143 150 153 152 151 152 155 156 158 159 159 155 157 157 159 162 166 165 164 165 166 162 162 162
239 248 259 34 77 79 68 44 234 235 168 153 170 149 102 120 137 142 147 154 151 149 144 136 146 149 150 150 152 153 153 154 153 157 160 167 167 166 167 168 167 169 170 167 167 167 163 160 163
274 278 295 336 18 95 70 28 263 254 194 141 172 151 124 139 139 146 151 153 149 148 145 145 155 158 159 156 154 154 151 148 154 162 167 174 177 174 175 176 175 175 174 173 174 176 175 172 174
283 273 249 258 295 42 74 11 321 286 72 94 193 195 133 142 147 153 155 156 152 151 150 150 156 153 166 163 155 154 151 151 158 166 169 182 185 184 185 186 174 183 187 189 190 189 189 187 188
258 255 265 312 315 8 53 299 14 214 168 161 174 42 94 138 153 159 160 161 157 158 159 160 158 159 168 162 153 170 165 163 172 173 172 197 201 189 189 181 163 185 192 194 194 197 199 203 198
246 258 290 344 328 330 302 288 257 205 196 178 157 118 127 149 163 170 171 171 168 166 168 167 167 164 166 156 158 178 181 170 191 180 184 203 202 201 200 151 181 193 199 199 196 203 212 224 210
245 272 312 308 319 310 287 279 247 243 234 210 185 162 157 166 175 182 180 178 173 169 170 163 161 164 170 164 172 178 179 171 185 179 192 197 200 197 205 186 187 199 202 206 187 204 218 223 227
255 269 287 292 299 287 281 270 255 259 290 329 183 163 168 178 183 187 186 178 171 169 169 167 164 167 186 177 179 189 185 181 184 175 201 195 198 204 211 216 217 213 209 210 221 220 216 229 228
246 263 270 282 279 282 270 256 262 265 269 195 161 165 175 181 185 183 180 179 176 168 172 171 175 172 188 188 206 189 196 197 189 191 198 213 209 202 207 221 229 235 226 212 222 231 218 225 225
274 269 260 259 269 257 252 245 236 249 199 173 169 174 179 180 180 174 179 181 173 169 173 173 181 176 189 196 207 205 202 204 208 204 203 215 224 214 220 221 225 231 229 232 235 235 229 230 233
252 254 242 227 240 240 252 239 211 183 175 180 176 175 177 181 182 182 181 182 175 172 172 177 182 180 191 199 206 207 204 202 209 204 206 214 227 222 231 230 220 222 224 219 229 234 231 227 227
235 244 245 210 215 218 250 264 116 147 194 195 184 178 180 180 185 181 180 183 177 177 174 183 188 183 190 203 211 213 209 202 209 208 204 213 229 230 233 235 225 219 223 222 222 234 236 234 237
227 245 257 230 203 229 247 270 122 190 210 206 196 186 185 181 187 184 187 184 182 180 180 185 191 192 195 203 212 216 203 212 218 218 214 209 226 229 235 237 229 224 225 226 231 222 243 242 245
253 261 262 260 217 243 254 264 239 209 222 217 208 197 194 194 194 190 193 188 181 179 183 188 189 188 195 198 205 212 209 213 223 222 217 224 225 227 237 228 221 234 229 228 237 234 237 247 245
270 269 269 266 260 258 259 261 254 216 223 219 214 206 202 201 192 190 192 190 181 179 187 189 190 180 189 196 211 210 213 221 223 219 204 219 227 222 231 236 209 232 230 235 235 238 229 234 235
257 261 263 258 234 261 267 263 250 233 234 233 224 215 210 206 190 185 190 192 194 191 196 198 199 191 196 192 218 230 239 233 233 229 206 217 219 224 221 229 228 226 228 222 228 235 245 236 224
251 260 268 265 246 240 257 255 238 221 229 224 222 222 215 211 203 192 195 202 203 201 203 204 202 201 198 190 201 205 210 230 220 218 211 212 219 222 235 226 234 234 236 220 225 226 233 240 228
256 259 265 260 255 254 250 275 250 222 219 223 221 217 214 206 206 200 201 207 206 204 202 200 196 198 192 197 206 214 225 234 239 238 220 214 217 222 219 223 225 235 240 228 230 225 236 240 241
268 273 260 257 258 263 248 264 258 216 233 225 221 219 215 211 209 203 203 205 205 203 199 190 189 192 191 203 204 215 232 238 234 234 220 228 215 220 220 218 221 229 238 234 240 229 238 237 246
242 241 241 243 248 253 254 265 272 249 256 246 218 217 212 211 209 205 201 199 202 201 195 185 182 187 191 203 215 223 233 243 244 242 231 231 224 222 221 225 224 229 235 231 233 233 230 243 248
229 248 247 240 236 254 232 254 270 279 269 266 234 211 205 206 204 203 203 198 198 195 190 181 177 185 194 204 218 229 236 241 240 243 236 245 244 232 220 228 227 230 232 234 233 233 240 235 237
231 245 265 280 281 278 230 250 269 227 249 249 233 214 201 204 207 207 204 199 194 190 188 188 183 187 194 202 211 220 231 238 238 238 255 252 259 256 234 232 231 235 235 235 231 238 233 231 235
235 237 264 274 275 276 258 244 223 207 220 218 213 208 206 211 208 209 200 189 183 183 179 182 184 198 208 214 216 217 227 246 249 238 242 249 251 251 239 236 234 238 237 236 232 239 238 234 236
252 241 240 258 277 275 262 252 250 210 219 215 218 221 221 211 201 198 184 172 172 171 162 164 176 191 213 224 228 229 240 243 250 258 254 254 253 256 249 244 241 237 235 234 233 239 236 239 240
214 221 241 258 269 281 283 284 39 262 254 234 227 232 229 208 188 177 169 160 154 156 157 154 160 172 194 219 233 252 258 254 250 247 243 242 246 248 248 249 250 245 241 239 235 241 242 242 243
240 242 239 255 262 260 279 287 87 148 267 249 251 221 188 184 174 165 156 153 155 153 151 150 164 181 192 201 226 252 259 260 259 256 252 249 251 250 251 252 251 250 247 242 239 241 242 242 243